Flag for U.S.A. Weather past 2 weeks in Mason, Ohio, U.S.A.

Now
86 °F

Sunny.


Feels Like: 89 °F
Forecast: 67 / 80 °F
Wind: 5 mph from West

Location: Butler County Regional Airport

Current Time: Jul 22, 2014 at 8:42:54 PM

Latest Report: Jul 22, 2014 at 7:53 PM


Visibility: 10 mi

Pressure: 30.01 "Hg

Humidity: 55%

Dew point: 68 °F

Location of MasonLocation

Historic Weather in Mason — Graph

°F

Mason temperature yesterday

Maximum temperature yesterday: 87 °F (at 5:53 PM)
Minimum temperature yesterday: 61 °F (at 6:53 AM)
Average temperature yesterday: 74 °F

Past Weeks' High & Low Weather Summary

 TemperatureHumidityPressure
High90 °F (Jul 13, 4:53 PM)100% (Jul 14, 1:53 AM)30.22 "Hg (Jul 14, 1:53 AM)
Low52 °F (Jul 17, 4:53 AM)39% (Jul 11, 3:53 PM)29.74 "Hg (Jul 8, 9:53 AM)
Average71 °F77%30.02 "Hg
* Reported Jul 7 12:53 PM — Jul 22 12:53 PM, Mason, Weather by CustomWeather, © 2014

Note: Actual official high and low records may vary slightly from our data, if they occured in-between our weather recording intervals... More about our weather records

Advertising

Mason weather history for previous 24 hours

 ConditionsComfort  
Time TempWeatherWind HumidityBarometerVisibility
12:53 PM
Jul 22
89 °FPassing clouds.N/A53%30.08 "Hg10 mi
11:53 AM86 °FSunny.6 mph63%30.09 "Hg10 mi
10:53 AM83 °FPassing clouds.No wind68%30.10 "Hg10 mi
9:53 AM80 °FPassing clouds.No wind74%30.12 "Hg8 mi
8:53 AM74 °FSunny.No wind85%30.13 "Hg6 mi
7:53 AM69 °FFog.No wind93%30.12 "Hg3 mi
6:53 AM65 °FFog.No wind97%30.12 "Hg2 mi
5:53 AM64 °FFog.No wind100%30.10 "Hg3 mi
4:53 AM65 °FFog.No wind97%30.09 "Hg3 mi
3:53 AM66 °FFog.No wind100%30.09 "Hg3 mi
2:53 AM66 °FFog.No wind96%30.09 "Hg3 mi
1:53 AM67 °FFog.No wind97%30.09 "Hg4 mi
12:53 AM67 °FFog.No wind97%30.10 "Hg5 mi
11:53 PM
Jul 21
69 °FFog.No wind93%30.10 "Hg6 mi
10:53 PM70 °FFog.No wind90%30.10 "Hg6 mi
9:53 PM71 °FSunny.No wind90%30.08 "Hg8 mi
8:53 PM75 °FSunny.No wind82%30.07 "Hg8 mi
Weather by CustomWeather, © 2014

See weather overviewHow to use our weather pages